カタログに戻る

STARLINK-4340

運用中通信SSO
NORAD 53494·PAYLOAD·🇺🇸 United States

打ち上げ Aug 12, 2022 から Vandenberg Space Force Base

Loading…

次のパス (今後24時間)

TLE

最新Source: CelesTrak SupGP

元期: Sep 14, 2026, 21:40 UTC

1 53494C 22099AF  26257.90326389 -.00154330  00000+0 -47891-2 0  2574
2 53494  97.2868  15.5681 0001297  97.8992  38.3583 15.33527854    10

AllMySatでSTARLINK-4340をリアルタイム追跡

Download on the App Store